Time[GMT],current_u[cm/s](10m),current_v[cm/s](10m),current_u[cm/s](14m),current_v[cm/s](14m),current_u[cm/s](18m),current_v[cm/s](18m),current_u[cm/s](22m),current_v[cm/s](22m),current_u[cm/s](26m),current_v[cm/s](26m),current_u[cm/s](30m),current_v[cm/s](30m),current_u[cm/s](34m),current_v[cm/s](34m),current_u[cm/s](38m),current_v[cm/s](38m),current_u[cm/s](42m),current_v[cm/s](42m),current_u[cm/s](46m),current_v[cm/s](46m),current_u[cm/s](50m),current_v[cm/s](50m),current_u[cm/s](54m),current_v[cm/s](54m)
2008-10-02 15:00,-16.98,-3.92,-10.52,-0.37,-9.57,2.10,-6.85,3.10,-4.20,1.17,-3.91,-1.25,-4.09,-3.49,-4.25,-2.91,-2.47,-0.83,-0.40,-0.43,3.72,0.46,8.22,0.74
2008-10-02 16:00,-11.26,-11.73,-7.20,-11.38,-4.27,-8.54,-2.16,-6.88,-8.03,-7.45,-8.42,-9.34,-5.96,-10.60,-4.61,-9.89,-4.00,-11.27,-3.10,-10.07,-0.10,-7.84,2.70,-7.44
2008-10-02 17:00,-18.40,-5.48,-17.57,-9.41,-11.74,-7.60,-9.21,-2.69,-15.09,-3.27,-16.30,-5.18,-14.48,-5.69,-15.01,-3.55,-17.16,-6.16,-15.93,-7.89,-12.12,-6.67,-7.81,-4.99
2008-10-02 18:00,-5.75,-12.41,-8.19,-13.33,-4.12,-13.71,0.30,-10.64,-1.87,-9.30,-5.75,-8.14,-6.31,-8.72,-5.76,-8.46,-6.30,-10.18,-4.34,-9.40,-0.65,-8.84,2.58,-8.83
2008-10-02 19:00,-5.68,-18.33,-9.42,-9.84,-7.34,-10.90,-1.38,-7.38,-2.59,-3.99,-8.03,-0.68,-7.39,-0.39,-3.39,-0.16,-3.17,-1.97,-4.73,-2.01,-5.21,-3.92,-4.40,-7.75
2008-10-02 20:00,-6.91,-24.84,-9.07,-20.99,-4.53,-20.50,-2.23,-19.09,-4.10,-10.57,-7.21,-7.42,-6.37,-8.84,-4.00,-8.05,-4.18,-8.51,-6.30,-9.45,-9.68,-11.79,-11.90,-15.25
2008-10-02 21:00,6.59,-26.83,8.92,-21.25,10.29,-20.22,13.33,-16.00,13.23,-6.76,11.08,-5.10,11.28,-5.45,12.73,-5.76,11.71,-5.12,9.10,-3.69,7.11,-2.92,4.94,-5.85
2008-10-02 22:00,2.47,-21.26,4.34,-17.69,7.88,-17.70,8.69,-14.75,10.05,-5.50,7.71,-2.85,8.43,-1.39,8.24,-0.40,6.57,1.40,6.86,1.48,6.22,1.19,5.17,1.93
2008-10-02 23:00,-1.71,-25.51,1.82,-14.78,3.24,-15.72,5.37,-15.52,10.08,-7.05,9.97,-4.17,10.74,-1.44,9.23,1.55,5.73,2.51,5.05,3.77,5.14,3.80,5.24,3.82
2008-10-03 00:00,-6.47,-19.92,-5.27,-14.77,-4.87,-16.84,-6.38,-16.66,-2.75,-13.41,3.78,-9.00,6.52,-3.41,4.80,-0.37,0.46,3.05,-1.56,3.19,-0.70,2.40,-0.91,2.03
2008-10-03 01:00,-5.53,-11.72,2.30,-5.37,0.71,-7.40,-0.91,-7.56,0.17,-4.85,4.57,-1.37,2.87,-1.97,8.34,0.35,8.78,3.82,5.17,7.24,6.94,6.20,5.89,1.93
2008-10-03 02:00,-11.57,-8.18,-5.65,-3.84,-9.91,-6.02,-12.92,-7.11,-10.20,-4.65,-5.22,-1.74,-4.18,-1.74,-3.03,-3.18,-3.84,0.65,-6.25,4.63,-4.30,4.37,-3.60,0.93
2008-10-03 03:00,0.55,-7.24,0.92,0.06,-4.20,-0.60,-7.23,-1.28,-3.07,-1.63,1.44,-2.08,1.25,-2.86,1.17,-2.58,0.22,0.69,-1.04,4.28,0.19,3.28,1.97,1.10
2008-10-03 04:00,-2.37,-4.03,-1.58,2.56,-0.42,3.94,-3.08,-0.17,-1.59,-3.49,0.68,-4.80,-0.24,-4.86,-1.67,-3.93,-1.20,-0.87,0.12,2.43,3.30,1.90,1.94,1.92
2008-10-03 05:00,-9.49,-2.46,-7.47,1.67,-6.06,-0.31,-9.47,-2.87,-11.82,-4.81,-13.49,-8.01,-12.75,-8.42,-11.72,-8.01,-9.35,-4.71,-4.97,-2.60,-2.09,-2.49,-3.63,-2.21
2008-10-03 06:00,3.54,-0.01,6.97,2.87,2.82,1.76,-0.89,3.39,-3.69,2.99,-6.66,-0.38,-6.61,-1.62,-4.78,-0.77,-1.47,1.45,2.44,3.42,4.39,0.66,2.64,0.25
2008-10-03 08:00,,,,,,,,,,,,,,,,,,,,,,,,
2008-10-03 09:00,8.21,-14.89,15.76,-11.13,14.14,-7.74,12.26,0.46,6.51,4.09,2.95,7.01,0.02,8.13,2.11,5.62,6.57,3.90,9.36,0.76,9.65,-2.70,7.32,-0.46
2008-10-03 10:00,0.68,-20.85,6.28,-17.54,9.34,-10.19,9.04,-5.27,0.83,-1.42,-2.33,2.97,-3.59,5.51,-5.30,3.87,-5.19,1.71,-1.48,-1.37,1.67,-10.35,-0.06,-10.85
2008-10-03 11:00,-1.02,-16.45,4.74,-15.49,8.82,-13.05,13.17,-7.61,8.04,-0.05,5.28,5.09,3.56,5.63,2.60,4.30,3.60,1.57,4.10,-0.47,3.56,0.31,3.21,2.19
2008-10-03 12:00,4.42,-12.98,4.29,-15.73,9.13,-13.06,11.46,-9.98,8.85,-2.10,7.88,3.35,8.02,6.41,6.85,5.44,5.75,3.87,4.85,3.71,5.01,4.59,5.72,3.24
2008-10-03 13:00,-0.97,6.18,-12.05,5.23,-10.19,-2.56,-6.49,-3.46,-0.23,-1.00,2.26,6.18,5.11,9.62,6.81,11.99,5.27,11.54,2.55,11.58,2.78,11.86,2.50,11.05
2008-10-03 14:00,-3.89,11.89,-13.40,12.33,-14.09,3.28,-11.40,-0.21,-6.26,0.04,-3.90,5.84,-1.50,7.27,3.28,9.09,3.59,10.53,3.09,10.80,4.26,8.95,2.43,7.38
2008-10-03 15:00,-2.48,14.90,-11.78,18.54,-15.18,10.57,-11.64,5.97,-8.52,7.41,-6.53,9.86,-3.06,10.46,1.29,10.90,1.34,12.16,0.97,12.37,1.24,10.36,0.98,8.41
2008-10-03 16:00,5.45,13.06,-4.43,12.66,-7.38,9.20,-6.69,6.48,-3.60,10.51,-3.63,13.84,-1.47,11.45,1.00,9.77,3.96,10.33,5.30,8.95,3.40,6.20,1.51,4.09
2008-10-03 17:00,2.71,6.42,-7.57,11.64,-8.41,8.79,-9.09,7.55,-6.56,8.19,-3.57,9.37,-1.81,6.55,-2.09,5.01,-1.35,4.61,1.07,4.17,2.15,4.07,0.69,4.06
2008-10-03 18:00,10.67,-4.07,-3.47,5.45,-5.95,5.03,-5.69,4.48,-4.36,3.52,-0.33,2.92,-0.75,1.14,-0.11,-0.34,3.34,-2.15,3.53,-2.09,2.84,-1.15,2.85,-0.83
2008-10-03 19:00,3.34,-4.65,-4.83,2.96,-2.21,4.35,-4.00,2.27,-0.80,2.37,0.06,0.85,-3.38,0.16,-4.37,0.70,-3.26,0.09,-2.26,0.59,-2.74,0.45,-3.10,-0.07
2008-10-03 20:00,1.14,-9.25,-8.35,6.83,-6.90,6.84,-7.86,2.29,-10.01,-1.05,-4.92,-1.34,-4.70,-2.10,-6.71,-1.65,-6.36,-0.71,-6.51,-0.55,-7.26,-0.46,-7.23,-1.28
2008-10-03 21:00,3.42,-12.75,-0.22,0.77,-3.70,0.90,-8.35,0.06,-7.69,-1.83,-5.38,-5.12,-7.38,-5.39,-7.77,-4.77,-6.17,-4.20,-4.14,-3.29,-3.92,-4.06,-4.45,-4.01
2008-10-03 22:00,11.38,-7.92,12.50,0.74,5.49,5.46,-0.77,4.78,0.15,1.61,0.28,1.54,-1.58,4.33,-0.51,2.46,0.84,2.12,1.51,3.05,2.76,1.95,2.66,0.15
2008-10-03 23:00,11.39,-6.88,18.13,4.26,14.40,10.25,10.34,9.17,6.73,8.32,2.66,11.20,4.43,12.65,5.25,10.18,5.29,10.40,5.44,11.70,4.12,11.21,3.06,9.13
2008-10-04 00:00,-3.77,-19.54,2.83,-7.19,3.47,-1.17,-0.94,-0.69,-2.01,1.18,-1.32,5.24,-1.30,7.64,-2.48,3.86,-2.69,2.44,-3.37,2.97,-2.30,0.37,-1.90,-1.70
2008-10-04 01:00,-3.27,-4.50,6.24,1.10,6.36,4.26,5.91,6.52,-0.20,6.40,-2.96,9.76,-1.55,11.01,-0.71,8.13,-0.47,7.68,-1.46,6.76,-0.42,6.44,-0.23,5.77
2008-10-04 02:00,-1.25,-2.14,6.46,1.78,7.38,4.35,6.96,5.78,0.52,5.36,-0.88,6.93,0.65,9.88,-0.09,7.79,-1.54,5.28,-0.52,3.91,-2.99,3.09,-1.69,2.21
2008-10-04 03:00,-15.76,7.58,-20.18,12.02,-8.26,7.59,-0.45,6.54,0.39,5.43,-5.74,3.95,-5.58,5.56,-1.55,8.51,-0.19,7.76,-0.66,6.89,-0.37,3.75,-1.67,1.07
2008-10-04 04:00,-11.65,10.97,-10.61,11.69,-4.26,8.86,-2.59,9.56,-5.03,9.36,-6.87,11.02,-6.64,10.25,-0.78,10.50,1.55,9.31,0.20,9.64,0.35,9.48,1.06,5.62
2008-10-04 05:00,-2.43,7.94,-3.74,6.72,-1.43,4.90,-2.03,10.87,-4.66,16.66,-6.53,15.91,-1.56,11.73,0.03,5.95,-2.90,0.30,-4.86,0.24,-0.87,0.48,-1.88,-0.34
2008-10-04 06:00,2.74,11.64,-1.33,6.70,-3.81,-2.99,-4.93,1.89,-6.74,7.72,-9.86,8.79,-9.49,6.08,-7.37,1.70,-5.18,-1.52,-6.77,-1.77,-2.69,-3.29,-1.50,-3.77
2008-10-04 07:00,-1.50,15.81,-12.40,8.56,-14.11,5.15,-12.48,9.90,-9.48,13.90,-9.24,16.26,-11.84,13.42,-13.47,10.44,-14.85,6.60,-14.19,2.93,-12.03,4.09,-10.04,4.77
2008-10-04 08:00,8.55,13.86,-2.58,6.33,-5.20,1.40,-5.81,4.55,-0.21,7.86,2.85,10.21,0.00,11.04,-4.27,9.27,-6.00,5.54,-4.22,2.31,-3.95,2.81,-3.97,0.40
2008-10-04 09:00,16.44,-0.30,0.03,3.45,-3.78,2.96,2.55,4.81,7.36,6.53,2.53,7.72,-3.36,8.29,-7.78,5.95,-4.57,6.37,-6.15,3.93,-3.98,1.13,-5.27,-0.50
2008-10-04 10:00,16.30,-3.36,3.26,10.23,1.27,8.50,9.96,5.83,12.37,5.80,6.33,8.62,4.10,10.57,7.69,8.61,11.62,4.44,12.73,2.06,13.54,-1.04,12.03,0.18
2008-10-04 11:00,14.55,-0.95,11.10,11.58,6.83,13.35,11.70,5.61,13.02,6.41,10.16,11.93,9.17,14.25,5.66,15.20,4.63,15.52,3.42,12.88,3.27,11.27,3.13,11.75
2008-10-04 12:00,3.41,-13.07,1.48,2.41,1.17,5.97,1.70,-1.17,2.91,-2.48,0.40,1.47,0.51,3.59,-0.39,4.89,-2.09,4.29,-5.42,3.94,-7.91,4.25,-9.17,5.34
2008-10-04 13:00,-0.39,-12.20,-1.06,1.15,2.17,8.97,1.10,4.80,0.34,0.62,2.49,-1.04,4.20,2.37,4.24,5.09,2.71,8.19,2.17,8.24,-0.05,6.24,-5.61,5.65
2008-10-04 14:00,-4.00,4.77,0.83,16.39,-1.43,18.44,-3.10,15.24,-3.11,9.20,-3.94,3.85,-4.71,4.35,-2.89,7.39,-3.41,11.30,-3.99,13.63,-3.13,12.84,-2.43,11.17
2008-10-04 15:00,-14.54,5.54,-0.90,8.07,3.21,13.23,-2.53,14.37,-4.04,10.59,-3.25,5.41,-5.08,1.33,-4.74,0.18,-4.43,3.39,-5.24,6.18,-4.39,7.88,-3.89,5.11
2008-10-04 16:00,-12.55,6.23,-3.30,13.41,4.66,17.20,-2.15,14.48,-5.30,12.41,-7.01,12.22,-8.37,7.24,-8.19,2.71,-7.19,3.94,-5.91,5.25,-5.75,3.63,-7.56,0.19
2008-10-04 17:00,-7.05,2.73,-4.53,6.59,-4.36,7.79,-5.79,5.91,-6.42,7.71,-10.96,11.48,-16.42,10.20,-14.84,3.37,-12.39,-0.39,-9.27,-1.77,-7.69,-3.29,-7.83,-4.58
2008-10-04 18:00,0.09,2.53,5.55,2.77,7.42,3.84,3.55,2.81,1.68,4.24,1.34,6.12,-0.59,6.29,-3.56,1.15,-4.01,-4.09,-1.77,-6.77,0.24,-6.18,1.95,-4.53
2008-10-04 19:00,0.01,2.82,3.65,2.84,9.64,-1.25,5.66,-2.62,0.89,0.16,-2.18,3.53,-5.56,1.92,-6.20,0.17,-6.78,-0.32,-6.96,-0.78,-8.35,-2.44,-9.27,-6.77
2008-10-04 20:00,1.39,2.38,2.95,2.74,8.74,-3.17,5.59,-3.78,2.93,-2.17,-0.44,0.08,-4.19,-0.29,-8.92,-1.57,-10.89,-0.89,-9.59,0.74,-10.30,0.32,-10.81,-2.95
2008-10-04 21:00,-2.34,0.15,0.68,1.24,3.32,-1.01,-2.39,-2.16,-5.77,-0.23,-12.00,3.26,-15.96,3.98,-14.94,4.07,-11.88,5.70,-10.54,2.54,-10.57,-1.63,-11.23,-3.28
2008-10-04 22:00,5.05,3.77,7.93,3.88,9.39,3.16,6.51,4.09,4.57,4.67,1.53,10.45,-2.37,12.75,-0.68,11.58,0.78,11.58,0.12,7.43,0.26,6.22,0.14,5.56
2008-10-04 23:00,1.61,-4.43,7.96,-1.21,5.74,-2.18,2.10,-3.97,2.40,-4.30,2.38,-3.16,0.47,1.60,-2.40,7.84,-9.85,7.33,-9.31,3.32,-9.77,2.04,-9.24,-0.10
2008-10-05 00:00,1.48,-0.09,5.70,2.60,6.01,3.32,2.11,2.39,2.92,-0.71,3.29,2.63,0.69,7.60,-2.13,10.84,-4.45,4.53,-3.75,2.13,-2.90,2.07,-1.62,4.11
2008-10-05 01:00,-1.44,-2.19,3.89,-0.11,5.18,1.52,4.74,4.82,3.73,0.78,5.48,0.14,3.99,2.73,1.18,11.28,-1.83,11.97,-4.28,3.23,-3.10,3.47,-2.81,3.55
2008-10-05 02:00,-18.73,14.53,-12.09,9.28,0.12,-1.84,1.58,-1.83,-0.44,0.81,2.10,1.03,2.87,-1.97,3.13,2.48,5.49,5.46,2.67,6.20,2.79,4.36,2.51,3.55
2008-10-05 03:00,-14.13,25.15,-9.68,14.57,-4.41,2.25,-1.46,-1.78,1.88,1.07,3.39,3.39,0.94,0.69,2.52,-0.41,4.12,0.89,3.64,5.02,3.40,3.70,3.89,3.43
2008-10-05 04:00,-11.12,29.46,-8.30,12.37,-5.86,5.06,-6.53,8.09,-7.21,7.89,-4.29,3.64,-4.15,3.16,-3.02,1.41,-3.42,1.71,-2.39,2.11,-1.35,2.84,-2.37,3.47
2008-10-05 05:00,-6.75,14.90,-13.24,2.17,-8.68,0.48,-7.77,1.27,-7.45,0.53,-6.75,-1.87,-6.23,-4.01,-4.41,-4.52,-6.68,-1.74,-6.35,-1.44,-6.35,-3.21,-6.03,-2.18
2008-10-05 06:00,2.10,15.62,-10.73,4.26,-5.74,2.18,-4.25,2.41,-4.06,1.42,-2.85,-3.44,-1.17,-5.97,-0.71,-5.42,-2.48,-0.41,-1.09,2.29,-0.65,-2.06,-0.61,-3.62
2008-10-05 07:00,12.17,8.98,-3.44,6.08,-5.83,3.19,-3.08,1.29,-1.71,2.63,0.53,0.68,-2.78,-0.81,-4.65,-1.57,-4.70,2.90,-4.66,3.12,-4.37,3.20,-2.53,0.82
2008-10-05 08:00,7.81,5.72,-5.52,6.41,-5.65,1.16,-4.86,-0.48,-1.65,1.71,3.92,0.83,-1.25,2.86,-4.55,2.00,-4.52,1.91,-2.16,2.39,-1.37,3.25,-0.65,1.16
2008-10-05 09:00,9.02,-0.91,-1.49,4.04,-2.81,1.78,-3.93,-0.11,-2.18,-0.01,1.40,0.20,1.05,-3.24,3.08,-0.56,3.48,0.91,1.35,-2.11,0.58,1.94,-1.85,3.11
2008-10-05 10:00,10.38,-3.42,3.03,4.95,-0.23,3.27,-1.66,-0.38,-1.04,-0.72,-5.36,3.02,-8.50,4.49,2.87,2.30,13.76,-0.04,13.26,4.19,12.63,5.26,13.42,-0.66
2008-10-05 11:00,7.90,-10.61,1.47,-1.45,1.53,5.45,-1.27,3.28,-0.39,0.62,-1.17,3.30,-3.76,6.09,-6.09,4.78,-7.53,3.32,-4.73,3.72,-2.05,5.23,-1.84,4.88
2008-10-05 12:00,6.19,-12.98,5.06,-3.42,6.33,4.35,1.74,3.32,-0.59,3.79,-2.50,6.04,-3.56,5.42,-4.84,5.88,-5.67,6.57,-2.47,5.95,-1.92,6.21,-3.72,4.54
2008-10-05 13:00,4.97,-8.44,7.13,-1.56,10.44,5.97,6.06,4.58,3.52,6.13,4.77,6.50,3.42,6.11,0.88,8.38,-1.14,8.52,1.16,7.42,1.83,6.58,0.60,5.80
2008-10-05 14:00,-2.26,-3.68,2.51,5.32,5.25,8.41,0.43,8.15,-2.46,8.76,-0.93,8.90,-0.41,7.80,-2.88,8.43,-5.34,8.65,-4.67,6.34,-3.00,4.54,-5.63,6.79
2008-10-05 15:00,-8.86,0.74,-3.18,3.03,3.46,5.28,3.69,7.33,1.82,6.26,2.15,5.11,1.92,3.06,0.71,4.69,-0.28,5.96,-0.93,6.40,-0.72,4.58,1.77,5.00
2008-10-05 16:00,-11.96,10.26,-7.36,8.06,2.31,5.99,8.57,9.17,5.61,9.66,4.28,7.81,4.94,6.97,4.35,7.21,2.50,4.27,0.78,3.04,0.99,1.96,1.57,-0.37
2008-10-05 17:00,-16.17,30.70,-16.20,16.93,-5.67,5.84,2.14,-1.25,3.42,0.06,2.95,2.01,-1.13,-1.48,-0.33,-2.08,0.58,-0.56,-0.32,-1.03,-2.81,-3.22,-4.52,-5.91
2008-10-05 18:00,-6.91,28.61,-9.79,19.23,-6.04,6.78,-4.37,-3.57,-2.11,-3.12,-1.06,-2.08,-3.23,-3.55,-2.64,-5.57,-1.96,-6.83,-0.41,-4.29,-1.18,-0.97,-5.60,-3.30
2008-10-05 19:00,-0.86,15.06,-2.27,0.27,-2.85,-3.44,-2.31,-1.72,-3.34,-0.35,-5.46,-3.78,-5.18,-6.52,-7.59,-7.53,-8.88,-8.12,-9.82,-7.04,-14.51,-3.10,-18.11,-5.40
2008-10-05 20:00,3.32,0.03,1.18,-4.76,2.40,-5.34,1.83,-5.19,-1.97,-6.10,-3.79,-6.63,-4.23,-4.78,-5.33,-3.85,-5.75,-0.64,-7.06,-0.08,-10.35,-1.67,-12.23,-3.78
2008-10-05 21:00,5.03,1.68,0.69,-1.99,2.11,-3.65,4.20,-4.40,1.80,-0.83,-0.94,0.35,-1.91,2.98,-2.02,5.14,-1.98,7.13,-3.85,7.11,-5.94,6.08,-5.22,5.04
2008-10-05 22:00,3.25,-1.13,-2.90,-4.70,-0.33,-8.12,-0.89,-4.43,-3.17,-0.93,-3.25,1.13,-3.71,2.35,-3.07,2.65,-2.79,4.91,-4.28,5.00,-5.76,5.09,-3.99,4.04
2008-10-05 23:00,7.33,9.13,-1.10,1.97,-0.92,1.71,3.96,0.01,4.76,1.18,4.24,6.87,2.64,7.02,3.76,9.23,3.86,11.03,1.80,10.95,3.89,10.93,6.27,10.27
2008-10-06 00:00,9.51,-2.22,0.09,2.53,-1.64,-0.79,0.17,-0.58,0.92,-4.21,-0.48,-2.64,-0.39,0.62,0.11,2.12,1.73,0.51,0.71,2.19,1.77,4.27,3.17,4.47
2008-10-06 02:00,,,,,,,,,,,,,,,,,,,,,,,,
2008-10-06 03:00,0.07,-1.65,-5.50,7.77,-3.64,19.57,-4.54,18.36,-4.33,13.74,-0.19,10.99,0.07,9.40,2.77,9.77,3.21,11.46,3.54,7.49,4.95,8.01,7.55,4.81
2008-10-06 04:00,-11.44,-2.93,-10.86,1.51,-10.47,9.44,-7.48,17.40,-4.16,15.66,-0.51,9.23,0.39,6.16,-0.01,3.23,1.24,3.59,2.24,1.59,3.62,0.43,4.31,-3.33
2008-10-06 05:00,-15.44,1.84,-9.78,9.23,-1.08,21.88,0.51,27.13,2.15,23.65,0.91,14.33,1.38,7.38,-0.86,3.29,-1.16,0.39,-1.99,-0.69,0.18,-0.99,2.48,-1.36
2008-10-06 06:00,-15.63,8.56,-6.78,12.50,0.63,18.52,4.59,17.80,2.66,11.93,1.76,5.73,-2.73,3.27,-6.85,3.10,-5.07,1.64,-2.94,-1.69,-1.34,-3.62,-1.65,-6.11
2008-10-06 07:00,-12.43,8.66,0.94,9.96,8.92,10.84,10.37,6.58,5.50,0.78,-0.09,1.02,-5.15,4.43,-2.59,1.74,-1.32,0.97,0.46,1.28,-0.64,0.75,-2.50,0.73
2008-10-06 08:00,-7.33,15.46,3.62,12.21,12.76,10.50,10.55,6.32,7.27,1.50,2.41,4.25,-3.56,8.96,-1.11,8.43,2.58,6.49,4.90,4.98,0.86,5.25,-1.02,5.64
2008-10-06 09:00,-4.44,4.85,4.22,1.23,10.16,-3.38,7.34,-5.87,1.50,-9.04,-0.71,-7.19,-4.55,-4.04,5.26,-1.59,7.28,-6.00,5.28,-7.00,2.47,-7.72,-4.17,-7.47
2008-10-06 10:00,5.76,1.68,12.90,-2.06,16.98,-9.62,14.47,-11.71,5.40,-11.34,2.26,-10.59,5.35,-8.33,17.76,-6.58,20.68,-6.25,12.35,-8.37,5.96,-8.99,0.27,-8.78
2008-10-06 11:00,5.68,6.24,9.96,-1.99,11.48,-8.62,9.72,-6.53,4.15,-3.16,0.95,-2.54,1.13,-1.02,1.82,0.53,0.96,0.28,-2.25,-0.14,-3.17,1.57,-4.62,2.61
2008-10-06 12:00,10.02,-4.68,13.97,-14.98,14.62,-21.15,11.62,-18.38,6.96,-15.26,5.71,-13.12,6.18,-11.53,6.94,-10.89,4.21,-9.40,3.07,-8.37,3.92,-5.21,4.09,-3.29
2008-10-06 13:00,2.03,11.95,3.18,0.51,6.03,-8.14,4.11,-6.93,2.14,-3.75,1.26,-0.05,2.35,0.17,4.44,0.15,2.77,1.23,2.01,3.82,3.80,6.95,4.05,8.58
2008-10-06 14:00,-1.55,14.55,1.12,2.93,0.57,-9.42,-1.22,-12.23,-0.76,-10.95,1.09,-8.02,2.30,-6.10,3.49,-6.59,5.97,-6.17,5.42,-5.71,4.14,-2.75,6.60,0.58
2008-10-06 15:00,-4.76,18.40,-0.41,6.03,-3.01,-8.59,-4.23,-14.05,-3.90,-13.75,-1.94,-10.47,1.72,-7.31,1.31,-7.33,4.75,-7.68,8.05,-8.27,8.22,-7.08,9.51,-7.22
2008-10-06 16:00,-2.31,15.37,-5.51,1.72,-11.80,-6.68,-11.32,-4.77,-6.30,-4.45,-3.85,-3.21,-2.22,-3.46,-0.55,-3.81,2.94,-5.08,4.22,-6.58,5.27,-5.54,4.96,-5.22
2008-10-06 17:00,7.71,9.97,-0.06,-0.85,-6.26,-1.41,-4.55,-3.31,-1.40,-5.20,1.87,-4.25,5.46,-6.22,5.64,-7.52,0.87,-9.75,3.68,-9.03,6.27,-8.27,5.92,-6.71
2008-10-06 18:00,3.47,13.41,-0.99,6.59,-7.09,3.24,-7.67,3.07,-6.25,-0.37,-3.55,-4.27,1.94,-7.35,5.89,-9.11,2.89,-9.89,1.82,-11.55,0.22,-11.08,-0.21,-9.96
2008-10-06 19:00,0.16,9.42,-4.59,10.01,-7.38,13.47,-5.02,12.18,-4.56,9.19,-4.62,2.61,-6.36,0.02,-5.50,-3.28,-7.59,-3.99,-10.24,-3.83,-8.26,-5.23,-7.17,-2.93
2008-10-06 20:00,0.72,5.00,-3.42,8.48,-3.78,11.50,-3.98,10.40,-3.20,4.90,-6.00,-2.28,-8.52,-1.87,-9.74,-0.55,-11.74,-0.10,-12.02,-2.37,-10.10,-6.08,-8.45,-6.74
2008-10-06 21:00,9.17,0.70,6.10,4.80,5.13,5.98,3.27,2.00,-0.25,-2.36,-2.34,-5.17,-4.31,-0.95,-7.56,3.41,-7.64,5.47,-6.82,3.01,-5.61,-1.12,-3.98,-2.41
2008-10-06 22:00,14.20,-1.89,9.94,0.93,5.77,-0.50,0.12,-1.84,-4.05,-3.27,-4.10,-3.80,-3.69,-1.29,-5.00,2.50,-5.37,3.74,-5.94,1.08,-7.25,-2.64,-7.60,-5.35
2008-10-06 23:00,16.03,-10.63,13.38,-6.19,7.33,-3.69,-0.38,-2.61,-2.62,-1.39,-1.17,0.80,-1.07,3.65,-0.98,4.40,-2.62,5.38,-2.48,6.36,-4.35,5.60,-4.74,4.45
2008-10-07 00:00,8.52,-16.68,8.49,-10.85,6.26,-6.82,1.31,-3.78,-0.37,-2.30,0.40,-0.30,4.69,1.79,2.98,1.91,0.67,1.97,-2.26,3.09,-1.43,4.90,1.01,5.82
2008-10-07 01:00,-11.41,-15.84,-5.14,-11.30,-1.76,-5.73,-0.21,-3.19,-3.94,0.31,-5.01,3.95,-1.11,2.38,6.68,1.74,5.85,2.44,3.36,2.75,0.09,3.26,0.22,4.23
2008-10-07 02:00,-11.70,-10.92,0.50,-7.77,7.45,-5.53,6.09,-3.74,4.33,-1.96,6.52,0.14,5.40,-0.30,11.51,-3.72,15.24,-3.67,8.23,-1.76,3.80,-1.60,2.09,-2.51
2008-10-07 03:00,-4.76,1.32,7.38,1.85,10.06,1.59,9.38,2.85,10.93,2.16,12.38,5.39,14.44,3.70,20.42,-0.70,19.63,-2.28,15.78,-1.22,8.72,-1.31,5.49,-3.08
2008-10-07 04:00,-21.71,12.61,-8.52,9.91,0.76,3.45,3.62,0.43,4.36,-1.02,8.19,-0.94,11.11,-1.65,12.13,-4.06,13.06,-6.91,11.54,-7.04,7.20,-6.44,5.93,-5.66
2008-10-07 05:00,-23.23,26.34,-13.34,19.96,-3.03,10.37,5.23,3.51,3.37,3.07,6.29,0.59,9.07,2.13,7.72,2.47,8.76,-0.04,7.77,-2.00,5.41,-2.48,1.94,-3.08
2008-10-07 06:00,-16.44,23.43,-8.30,13.41,1.03,0.40,4.42,-5.48,3.30,-4.87,4.03,-9.14,6.32,-9.51,5.35,-8.33,6.56,-10.69,5.18,-12.03,4.47,-12.44,1.67,-10.35
2008-10-07 07:00,-6.74,32.31,-5.85,17.15,-1.55,3.51,0.09,-3.52,0.46,-1.22,-0.99,-3.73,0.03,-6.87,2.37,-4.20,2.63,-5.07,-0.43,-7.42,-2.95,-7.01,-4.21,-3.42
2008-10-07 08:00,2.34,15.17,-0.03,1.87,0.11,-7.16,1.85,-10.61,0.26,-12.64,-2.90,-13.25,-1.65,-13.61,-1.78,-12.81,-1.63,-14.75,-1.91,-14.83,-2.71,-10.69,-3.34,-8.89
2008-10-07 09:00,5.67,-6.57,3.23,-16.04,4.70,-17.48,1.10,-17.29,-2.24,-17.64,0.81,-19.14,-0.12,-17.75,-3.67,-14.51,-3.64,-15.34,-3.61,-13.66,-1.73,-11.55,-1.44,-10.74
2008-10-07 10:00,8.97,3.87,1.65,-8.48,-0.08,-13.98,-0.58,-14.76,-1.29,-14.13,-2.41,-12.06,-3.87,-8.84,1.56,-7.46,5.02,-7.18,5.27,-2.00,3.64,-2.48,1.08,-0.83
2008-10-07 11:00,10.61,6.12,1.79,-1.14,-1.73,-4.78,-2.18,-7.51,-1.62,-6.93,-0.34,-5.62,-1.49,-2.73,-4.35,2.06,-4.46,3.49,-1.83,4.47,-1.04,5.32,1.55,6.81
2008-10-07 12:00,14.69,-3.21,6.47,-2.90,-1.37,-5.30,-5.75,-7.41,-6.72,-6.24,-6.54,-6.50,-6.64,-5.80,-6.71,-2.69,-5.62,0.34,-3.10,0.97,-2.42,1.17,-0.51,1.73
2008-10-07 13:00,16.52,-12.67,13.68,-4.75,6.48,-4.36,0.57,-2.65,-1.43,-3.65,1.12,-3.84,1.41,-3.76,1.91,-2.25,3.02,-0.37,4.53,0.18,5.12,0.66,5.13,0.98
2008-10-07 14:00,4.02,-14.45,7.05,-7.00,3.81,-1.28,-0.71,2.08,-3.08,3.06,0.08,2.94,1.69,2.06,3.57,2.40,5.37,4.07,5.04,2.72,5.05,3.04,6.47,2.10
2008-10-07 15:00,-3.98,-9.19,3.33,-1.42,5.93,4.65,3.20,9.37,0.56,11.62,0.17,12.97,4.60,12.08,7.02,10.18,8.83,9.35,12.59,8.26,12.46,5.83,12.32,5.27
2008-10-07 16:00,-15.58,-3.72,-6.78,-1.04,-1.35,2.84,1.25,8.18,-1.98,9.63,-1.28,9.00,-0.52,8.18,2.16,6.88,4.38,2.84,10.56,0.59,12.74,-1.17,9.98,-3.85
2008-10-07 17:00,-2.27,2.77,-0.01,7.50,-0.58,12.33,2.66,14.43,0.80,12.22,1.13,8.98,3.24,6.37,2.10,2.80,4.05,2.54,8.78,0.27,6.40,-2.30,3.71,-3.08
2008-10-07 18:00,-10.54,3.27,-1.18,2.26,0.55,6.31,3.10,6.85,2.57,3.67,2.03,0.18,-0.63,-0.70,0.88,-1.93,4.04,-4.55,2.47,-8.45,0.22,-6.81,-2.88,-5.84
2008-10-07 19:00,-7.25,5.90,1.09,1.26,5.36,5.53,4.05,4.31,3.06,0.58,1.43,-0.62,-1.23,-2.55,-0.22,-4.96,0.64,-7.52,-2.28,-8.59,-4.42,-7.34,-4.99,-7.50
2008-10-07 20:00,-11.43,14.16,-6.66,4.62,0.66,-1.89,4.38,-0.38,4.32,-1.24,2.01,-2.95,0.69,-3.44,-1.34,-3.62,-4.43,-8.38,-7.27,-10.05,-6.71,-9.46,-4.63,-8.02
2008-10-07 21:00,-6.41,1.98,-5.69,-5.83,4.04,-7.05,6.77,-7.82,2.47,-8.45,0.24,-7.22,-4.08,-6.71,-5.50,-8.28,-8.16,-8.43,-11.79,-7.41,-12.63,-4.21,-12.20,-3.88
2008-10-07 22:00,-9.90,-2.48,-8.88,-6.35,1.84,-9.15,4.26,-10.63,2.14,-10.52,-2.60,-11.07,-8.01,-9.32,-10.97,-8.10,-12.75,-6.64,-12.79,-2.59,-12.82,0.00,-13.15,0.43
2008-10-07 23:00,-3.96,-7.83,-0.94,-14.24,7.87,-17.29,7.62,-19.65,5.41,-18.84,-1.16,-17.42,-4.36,-11.80,-6.82,-10.54,-7.38,-7.89,-6.86,-5.03,-7.28,-6.09,-4.97,-5.10
2008-10-08 00:00,-3.45,3.26,-3.60,-1.57,6.08,-7.60,11.66,-13.16,8.89,-14.38,4.14,-9.52,3.48,-5.13,-0.54,-1.72,-2.02,-0.59,4.06,0.35,3.30,-0.60,6.49,2.73
2008-10-08 01:00,3.60,4.07,-3.20,0.63,1.68,-5.76,7.16,-10.93,5.86,-14.33,0.31,-9.60,1.08,-3.33,2.24,-2.68,1.53,-0.59,4.36,-0.29,6.83,-0.92,11.34,1.13
2008-10-08 02:00,4.27,6.77,-0.83,7.47,0.80,-1.33,1.33,-6.70,0.59,-11.29,-1.69,-8.10,-2.45,-1.24,1.57,-2.87,0.12,-1.11,7.10,0.30,11.21,1.92,10.23,1.01
2008-10-08 03:00,6.10,10.85,2.92,2.83,0.40,-2.07,-1.77,-8.54,-1.90,-3.47,-0.46,3.72,0.78,3.04,2.74,-2.95,3.68,0.97,7.58,0.45,8.52,1.14,7.21,2.42
2008-10-08 04:00,4.12,6.93,2.64,8.07,1.01,4.04,-2.15,0.93,-1.50,1.23,2.54,4.49,4.11,3.39,3.91,0.52,5.00,2.50,6.57,1.40,7.07,2.17,5.00,1.78
2008-10-08 05:00,-11.93,-0.88,-1.15,6.44,5.53,11.72,1.57,6.40,-1.49,3.31,-2.32,0.47,4.05,2.54,8.06,2.36,4.36,-1.02,7.10,-1.47,8.44,-4.62,12.26,-3.08
2008-10-08 06:00,-4.92,5.44,7.68,10.79,7.85,9.49,3.98,5.64,-0.66,4.39,1.52,3.36,3.08,1.21,3.58,-0.83,6.56,-0.69,7.49,-2.08,10.67,-4.07,9.87,-3.47
2008-10-08 07:00,5.31,9.99,12.57,11.18,7.74,9.87,-1.78,8.23,-6.59,6.51,-3.09,2.74,1.32,1.53,0.52,1.09,1.56,-1.42,4.00,-2.27,4.65,-3.43,4.08,-2.56
2008-10-08 08:00,7.43,2.38,12.51,2.10,3.92,3.33,-2.58,7.06,-0.25,1.91,-0.27,-1.22,-3.52,-0.09,-0.42,-4.60,3.32,-6.74,5.99,-7.31,4.56,-8.46,0.90,-6.30
2008-10-08 09:00,-5.25,6.90,7.67,1.20,5.82,0.76,0.66,4.88,0.02,5.63,2.26,0.45,2.81,-5.33,1.75,-4.91,4.34,-9.15,3.73,-7.77,0.00,-6.77,-1.83,-6.58
2008-10-08 10:00,8.83,-5.96,3.78,-4.73,-0.50,0.27,-0.35,3.34,1.77,-0.00,-0.36,-3.75,-2.33,-3.81,6.32,-11.28,14.34,-13.41,10.05,-12.27,3.68,-9.03,2.48,-6.36
2008-10-08 11:00,11.99,-11.08,7.75,-5.13,8.00,0.78,9.69,-2.48,6.49,-5.81,1.63,-5.57,-2.59,-5.03,-6.86,-3.98,-7.59,-0.76,-7.27,0.27,-7.40,-0.71,-6.93,-0.88
2008-10-08 12:00,10.83,-13.50,7.46,-8.76,8.51,-3.45,8.67,-6.84,3.43,-9.94,-2.15,-7.61,-6.40,-5.20,-8.09,-2.99,-4.88,1.38,-4.85,1.60,-3.85,2.83,-0.86,5.06
2008-10-08 13:00,4.03,-18.41,0.16,-14.44,2.84,-8.65,7.71,-5.35,2.99,-9.86,0.31,-10.33,-2.65,-7.34,-4.63,-3.75,-2.98,-1.91,-3.04,-0.99,-4.01,0.18,-3.87,1.47
2008-10-08 14:00,-2.05,-10.81,1.41,-14.80,0.31,-8.56,5.67,-3.34,6.64,-3.48,0.46,-6.22,-3.14,-2.79,-3.11,0.65,-1.50,2.27,-1.73,2.72,-1.30,3.37,-1.46,3.22
2008-10-08 15:00,-0.27,-5.50,0.79,-5.92,1.85,-1.33,6.74,-0.95,2.80,-2.10,-2.01,-3.82,-3.00,-1.50,-2.23,0.49,1.37,1.02,3.48,1.64,3.80,0.90,3.85,1.44
2008-10-08 16:00,-6.23,-4.01,-4.53,-4.45,-1.50,-0.23,2.46,-0.95,2.19,-2.49,-1.47,-2.83,-2.23,-1.28,-0.08,1.33,3.81,-0.55,5.37,-0.20,4.56,0.08,2.10,2.80
2008-10-08 17:00,-14.94,3.34,-10.58,3.05,-4.33,4.46,2.51,0.32,1.40,-1.57,-2.22,-2.73,-3.70,-3.37,-2.11,-2.39,2.09,-0.01,6.15,-2.16,7.11,-1.88,4.78,0.04
2008-10-08 18:00,-7.52,11.45,-3.35,8.61,4.66,5.43,7.74,0.60,4.75,-1.63,1.87,-1.75,2.35,-0.56,2.83,0.31,4.68,0.02,8.62,-3.11,9.79,-3.91,6.10,-2.70
2008-10-08 20:00,6.25,10.68,5.61,9.66,2.68,1.51,-0.81,-2.22,-3.97,0.40,-3.53,2.09,-3.01,0.68,-1.22,-0.46,0.84,0.35,0.24,-2.95,-1.71,-7.69,-1.37,-8.84
2008-10-08 21:00,10.85,9.22,8.32,5.04,3.59,-2.29,-2.00,-2.77,-3.68,0.49,-2.34,-1.62,-2.48,-2.91,-0.05,-5.54,-1.43,-6.88,-4.79,-8.90,-6.95,-9.74,-7.26,-7.96
2008-10-08 22:00,9.56,5.09,8.11,1.12,4.35,-3.83,-0.08,-7.21,-1.83,-6.58,-1.24,-3.59,-1.83,-4.08,0.59,-6.29,0.04,-8.32,-0.39,-7.93,-2.33,-8.08,-4.73,-6.28
2008-10-08 23:00,16.64,0.80,12.12,0.94,5.49,-3.81,2.38,-2.43,4.15,-2.43,4.12,-2.34,2.26,-3.09,0.11,-2.88,-1.07,-3.12,-4.17,-4.97,-2.83,-4.58,-2.01,1.18
2008-10-09 00:00,15.56,-6.18,8.62,-6.33,-0.83,-5.35,1.46,-4.99,3.90,-4.07,1.11,-2.38,-1.88,-2.84,-3.47,-5.60,-5.51,-2.55,-5.72,2.81,-5.64,1.48,-3.96,-0.01
2008-10-09 01:00,15.96,-10.75,6.03,-8.14,-0.04,-1.99,1.41,-3.03,5.15,-3.70,1.30,-1.60,-3.42,-0.06,-2.97,1.95,-3.27,4.77,-3.96,3.22,-7.00,5.04,-5.54,5.05
2008-10-09 02:00,23.35,-6.82,14.43,-3.39,4.11,7.66,3.22,10.01,6.56,5.36,7.73,2.05,4.95,3.74,3.43,7.15,3.30,7.95,4.71,8.46,5.87,10.57,6.37,11.34
2008-10-09 03:00,9.02,-19.45,0.55,-14.01,-3.02,-5.36,-1.97,-3.60,1.26,-7.86,-0.25,-9.14,-4.10,-4.85,-2.88,-2.61,-2.64,-2.02,-0.17,-1.92,0.00,-2.50,0.62,-2.11